TAM4344 SBIL-SBCJ

Flight info

Callsign TAM4344
Flight time N/A
Altitude 34000
Route EDNOB DCT URUVA DCT XODOV DCT ELADI UZ9 SUDRO UL576 ATOGU
Aircraft A20N/M-SDE2E3FGHIRWXY/LB1

Departure

Time 2026-05-06 20:53
Airport Bahia - Jorge Amado Airport (SBIL)

Arrival

Time N/A
Airport Carajás Airport (SBCJ)
Time Latitude Longitude Altitude Speed Heading
2026-05-06 20:26 -14.81444 -39.03183 26 ft 0 kts 47°
2026-05-06 20:44 -14.81451 -39.03191 26 ft 2 kts 47°
2026-05-06 20:44 -14.81460 -39.03201 26 ft 1 kts 47°
2026-05-06 20:44 -14.81471 -39.03208 26 ft 2 kts 357°
2026-05-06 20:44 -14.81482 -39.03204 26 ft 1 kts 314°
2026-05-06 20:45 -14.81485 -39.03199 26 ft 1 kts 262°
2026-05-06 20:45 -14.81482 -39.03185 26 ft 2 kts 267°
2026-05-06 20:45 -14.81481 -39.03169 26 ft 2 kts 265°
2026-05-06 20:45 -14.81480 -39.03154 26 ft 1 kts 266°
2026-05-06 20:46 -14.81480 -39.03150 26 ft 0 kts 267°
2026-05-06 20:48 -14.81480 -39.03157 26 ft 1 kts 267°
2026-05-06 20:48 -14.81481 -39.03175 26 ft 3 kts 268°
2026-05-06 20:48 -14.81483 -39.03216 26 ft 6 kts 259°
2026-05-06 20:48 -14.81517 -39.03239 26 ft 7 kts 189°
2026-05-06 20:49 -14.81577 -39.03253 26 ft 9 kts 213°
2026-05-06 20:49 -14.81590 -39.03320 25 ft 11 kts 271°
2026-05-06 20:49 -14.81589 -39.03393 25 ft 7 kts 271°
2026-05-06 20:49 -14.81588 -39.03462 25 ft 12 kts 272°
2026-05-06 20:50 -14.81586 -39.03558 25 ft 15 kts 270°
2026-05-06 20:50 -14.81590 -39.03663 24 ft 13 kts 268°
2026-05-06 20:50 -14.81591 -39.03744 24 ft 8 kts 272°
2026-05-06 20:50 -14.81589 -39.03771 24 ft 0 kts 276°
2026-05-06 20:51 -14.81589 -39.03777 24 ft 2 kts 274°
2026-05-06 20:51 -14.81591 -39.03816 24 ft 7 kts 264°
2026-05-06 20:51 -14.81597 -39.03892 24 ft 13 kts 267°
2026-05-06 20:51 -14.81593 -39.04000 24 ft 16 kts 272°
2026-05-06 20:52 -14.81607 -39.04073 22 ft 6 kts 169°
2026-05-06 20:52 -14.81610 -39.04035 23 ft 6 kts 100°
2026-05-06 20:52 -14.81611 -39.03997 24 ft 8 kts 90°
2026-05-06 20:52 -14.81599 -39.03622 25 ft 91 kts 89°
2026-05-06 20:53 -14.81561 -39.02728 39 ft 152 kts 89°
2026-05-06 20:53 -14.81512 -39.01695 770 ft 137 kts 91°
2026-05-06 20:53 -14.81490 -39.00753 1481 ft 129 kts 93°
2026-05-06 20:53 -14.81345 -38.99838 2018 ft 139 kts 67°
2026-05-06 20:54 -14.80640 -38.99146 2361 ft 165 kts 28°
2026-05-06 20:54 -14.79418 -38.99009 2724 ft 194 kts 351°
2026-05-06 20:54 -14.78131 -38.99635 3237 ft 215 kts 312°
2026-05-06 20:54 -14.77497 -39.01070 3772 ft 229 kts 269°
2026-05-06 20:55 -14.77883 -39.02603 4305 ft 237 kts 231°
2026-05-06 20:55 -14.79039 -39.03883 4902 ft 250 kts 223°
2026-05-06 20:55 -14.80037 -39.05445 5437 ft 275 kts 249°
2026-05-06 20:55 -14.80256 -39.07494 6055 ft 293 kts 278°
2026-05-06 20:56 -14.79583 -39.09409 6866 ft 297 kts 305°
2026-05-06 20:56 -14.78138 -39.10899 7774 ft 294 kts 332°
2026-05-06 20:56 -14.76248 -39.11623 8625 ft 290 kts 352°
2026-05-06 20:56 -14.74256 -39.12115 9446 ft 297 kts 344°
2026-05-06 20:57 -14.72336 -39.13022 10249 ft 303 kts 332°
2026-05-06 20:57 -14.70543 -39.14264 10832 ft 317 kts 324°
2026-05-06 20:57 -14.68775 -39.15810 11214 ft 336 kts 319°
2026-05-06 20:57 -14.67062 -39.17532 11572 ft 355 kts 316°
2026-05-06 20:58 -14.65278 -39.19463 11902 ft 373 kts 314°
2026-05-06 20:58 -14.63461 -39.21506 12156 ft 391 kts 313°
2026-05-06 20:58 -14.62222 -39.22919 12331 ft 401 kts 313°
2026-05-06 20:58 -14.60326 -39.25099 12617 ft 416 kts 313°
2026-05-06 20:59 -14.57686 -39.28144 13334 ft 422 kts 312°
2026-05-06 20:59 -14.55721 -39.30416 13994 ft 424 kts 312°
2026-05-06 20:59 -14.53742 -39.32705 14581 ft 427 kts 312°
2026-05-06 20:59 -14.52413 -39.34242 14954 ft 429 kts 312°
2026-05-06 21:00 -14.49728 -39.37346 15712 ft 433 kts 312°
2026-05-06 21:00 -14.47720 -39.39666 16253 ft 436 kts 312°
2026-05-06 21:00 -14.45655 -39.42052 16791 ft 438 kts 312°
2026-05-06 21:00 -14.43617 -39.44406 17295 ft 441 kts 311°
2026-05-06 21:01 -14.41537 -39.46808 17795 ft 444 kts 311°
2026-05-06 21:01 -14.39551 -39.49101 18259 ft 446 kts 311°
2026-05-06 21:01 -14.37473 -39.51496 18722 ft 449 kts 311°
2026-05-06 21:01 -14.35384 -39.53906 19168 ft 452 kts 311°
2026-05-06 21:02 -14.33198 -39.56297 19624 ft 455 kts 315°
2026-05-06 21:02 -14.30842 -39.58424 20053 ft 458 kts 321°
2026-05-06 21:02 -14.28223 -39.60339 20471 ft 462 kts 327°
2026-05-06 21:02 -14.25408 -39.62073 20898 ft 465 kts 329°
2026-05-06 21:03 -14.22663 -39.63698 21302 ft 468 kts 329°
2026-05-06 21:03 -14.19798 -39.65381 21728 ft 471 kts 329°
2026-05-06 21:03 -14.17147 -39.66941 22103 ft 474 kts 329°
2026-05-06 21:03 -14.14267 -39.68640 22504 ft 477 kts 329°
2026-05-06 21:04 -14.11363 -39.70355 22893 ft 480 kts 329°
2026-05-06 21:04 -14.08413 -39.72103 23318 ft 482 kts 329°
2026-05-06 21:04 -14.05486 -39.73839 23719 ft 484 kts 329°
2026-05-06 21:04 -14.02498 -39.75611 24115 ft 486 kts 329°
2026-05-06 21:05 -13.99521 -39.77376 24643 ft 485 kts 329°
2026-05-06 21:05 -13.96597 -39.79108 25236 ft 482 kts 328°
2026-05-06 21:05 -13.93760 -39.80789 25793 ft 480 kts 328°
2026-05-06 21:05 -13.90830 -39.82524 26336 ft 479 kts 328°
2026-05-06 21:06 -13.87937 -39.84238 26844 ft 478 kts 328°
2026-05-06 21:06 -13.85060 -39.85943 27348 ft 477 kts 328°
2026-05-06 21:06 -13.82119 -39.87684 27825 ft 476 kts 328°
2026-05-06 21:06 -13.79162 -39.89435 28304 ft 475 kts 328°
2026-05-06 21:07 -13.76273 -39.91145 28762 ft 474 kts 328°
2026-05-06 21:07 -13.73400 -39.92845 29204 ft 473 kts 328°
2026-05-06 21:07 -13.70651 -39.94470 29585 ft 472 kts 328°
2026-05-06 21:07 -13.67780 -39.96167 29918 ft 472 kts 327°
2026-05-06 21:08 -13.64934 -39.97847 30207 ft 473 kts 327°
2026-05-06 21:08 -13.62065 -39.99542 30471 ft 475 kts 327°
2026-05-06 21:08 -13.59232 -40.01216 30747 ft 475 kts 327°
2026-05-06 21:08 -13.56315 -40.02940 31047 ft 476 kts 327°
2026-05-06 21:09 -13.53461 -40.04623 31349 ft 475 kts 327°
2026-05-06 21:09 -13.50541 -40.06345 31609 ft 476 kts 326°
2026-05-06 21:09 -13.47621 -40.08069 31863 ft 477 kts 326°
2026-05-06 21:09 -13.44717 -40.09784 32132 ft 477 kts 326°
2026-05-06 21:10 -13.41839 -40.11481 32418 ft 477 kts 326°
2026-05-06 21:10 -13.39059 -40.13118 32610 ft 479 kts 325°
2026-05-06 21:10 -13.36094 -40.14868 32806 ft 481 kts 325°
2026-05-06 21:10 -13.33178 -40.16589 33001 ft 482 kts 325°
2026-05-06 21:11 -13.30223 -40.18329 33209 ft 484 kts 325°
2026-05-06 21:11 -13.27276 -40.20065 33418 ft 485 kts 325°
2026-05-06 21:11 -13.24383 -40.21769 33631 ft 486 kts 325°
2026-05-06 21:11 -13.21470 -40.23484 33841 ft 487 kts 324°
2026-05-06 21:12 -13.18493 -40.25239 34064 ft 488 kts 324°
2026-05-06 21:12 -13.12553 -40.28733 34080 ft 489 kts 324°
2026-05-06 21:13 -13.06575 -40.32255 34091 ft 490 kts 324°
2026-05-06 21:13 -13.00867 -40.35585 34075 ft 490 kts 325°
2026-05-06 21:14 -12.94909 -40.38874 34074 ft 491 kts 326°
2026-05-06 21:14 -12.88831 -40.42208 34062 ft 491 kts 326°
2026-05-06 21:15 -12.82747 -40.45558 34066 ft 491 kts 326°
2026-05-06 21:15 -12.76686 -40.48904 34069 ft 491 kts 326°
2026-05-06 21:16 -12.70638 -40.52243 34062 ft 492 kts 326°
2026-05-06 21:16 -12.64578 -40.55586 34067 ft 492 kts 325°
2026-05-06 21:17 -12.58514 -40.58929 34061 ft 491 kts 325°
2026-05-06 21:17 -12.52467 -40.62263 34058 ft 492 kts 325°
2026-05-06 21:18 -12.46384 -40.65614 34054 ft 492 kts 325°
2026-05-06 21:18 -12.40312 -40.68957 34065 ft 492 kts 325°
2026-05-06 21:19 -12.34204 -40.72319 34050 ft 491 kts 325°
2026-05-06 21:19 -12.28095 -40.75678 34079 ft 492 kts 325°
2026-05-06 21:20 -12.22008 -40.79026 34080 ft 493 kts 325°
2026-05-06 21:20 -12.15943 -40.82357 34091 ft 491 kts 325°
2026-05-06 21:21 -12.09853 -40.85702 34095 ft 491 kts 325°
2026-05-06 21:21 -12.03787 -40.89034 34083 ft 492 kts 325°
2026-05-06 21:22 -11.97744 -40.92348 34100 ft 493 kts 325°
2026-05-06 21:22 -11.91675 -40.95677 34107 ft 492 kts 325°
2026-05-06 21:23 -11.85572 -40.99021 34112 ft 492 kts 324°
2026-05-06 21:23 -11.79499 -41.02349 34122 ft 492 kts 325°
2026-05-06 21:24 -11.73465 -41.05656 34126 ft 491 kts 325°
2026-05-06 21:24 -11.67450 -41.08949 34130 ft 492 kts 325°
2026-05-06 21:25 -11.61379 -41.12272 34133 ft 491 kts 325°
2026-05-06 21:25 -11.55345 -41.15577 34139 ft 490 kts 324°
2026-05-06 21:26 -11.49591 -41.19205 34140 ft 483 kts 318°
2026-05-06 21:26 -11.44243 -41.23364 34139 ft 479 kts 314°
2026-05-06 21:27 -11.39087 -41.27531 34136 ft 479 kts 315°
2026-05-06 21:27 -11.33841 -41.31761 34128 ft 480 kts 315°
2026-05-06 21:28 -11.28610 -41.35972 34117 ft 480 kts 315°
2026-05-06 21:28 -11.23330 -41.40211 34107 ft 478 kts 315°
2026-05-06 21:29 -11.18036 -41.44463 34095 ft 480 kts 315°
2026-05-06 21:29 -11.12769 -41.48691 34086 ft 479 kts 315°
2026-05-06 21:30 -11.07511 -41.52911 34075 ft 479 kts 315°
2026-05-06 21:30 -11.02274 -41.57113 34070 ft 479 kts 315°
2026-05-06 21:31 -10.96969 -41.61368 34074 ft 479 kts 315°
2026-05-06 21:31 -10.91727 -41.65586 34073 ft 478 kts 314°
2026-05-06 21:32 -10.87063 -41.70184 34066 ft 469 kts 304°
2026-05-06 21:32 -10.81646 -41.78278 34053 ft 457 kts 290°
2026-05-06 21:33 -10.79508 -41.83207 34049 ft 451 kts 285°
2026-05-06 21:33 -10.77208 -41.89202 34042 ft 451 kts 285°
2026-05-06 21:34 -10.74500 -41.96177 34037 ft 451 kts 285°
2026-05-06 21:34 -10.72266 -42.01884 34039 ft 452 kts 285°
2026-05-06 21:35 -10.69922 -42.07869 34033 ft 453 kts 285°
2026-05-06 21:35 -10.67631 -42.13726 34031 ft 452 kts 285°
2026-05-06 21:36 -10.65343 -42.19567 34031 ft 453 kts 285°
2026-05-06 21:36 -10.62981 -42.25576 34028 ft 452 kts 285°
2026-05-06 21:37 -10.60678 -42.31437 34027 ft 453 kts 286°
2026-05-06 21:37 -10.58418 -42.37188 34029 ft 454 kts 285°
2026-05-06 21:38 -10.56067 -42.43171 34032 ft 453 kts 286°
2026-05-06 21:38 -10.53719 -42.49146 34032 ft 453 kts 285°
2026-05-06 21:39 -10.51363 -42.55134 34036 ft 454 kts 286°
2026-05-06 21:39 -10.48993 -42.61158 34026 ft 455 kts 286°
2026-05-06 21:40 -10.46667 -42.67065 34024 ft 455 kts 286°
2026-05-06 21:40 -10.44318 -42.73029 34017 ft 454 kts 286°
2026-05-06 21:41 -10.41946 -42.79052 34017 ft 454 kts 286°
2026-05-06 21:41 -10.39599 -42.85002 34013 ft 455 kts 286°
2026-05-06 21:42 -10.37223 -42.91028 34019 ft 456 kts 287°
2026-05-06 21:42 -10.34853 -42.97009 34016 ft 455 kts 286°
2026-05-06 21:43 -10.32490 -43.02975 34019 ft 455 kts 287°
2026-05-06 21:43 -10.30124 -43.08951 34017 ft 456 kts 287°
2026-05-06 21:44 -10.27756 -43.14929 34021 ft 456 kts 287°
2026-05-06 21:44 -10.25379 -43.20935 34017 ft 457 kts 287°
2026-05-06 21:45 -10.22999 -43.26936 34020 ft 456 kts 287°
2026-05-06 21:45 -10.20639 -43.32898 34024 ft 457 kts 287°
2026-05-06 21:46 -10.18256 -43.38902 34018 ft 457 kts 287°
2026-05-06 21:46 -10.15864 -43.44911 34020 ft 458 kts 287°
2026-05-06 21:47 -10.13482 -43.50888 34021 ft 458 kts 287°
2026-05-06 21:47 -10.11104 -43.56867 34026 ft 458 kts 287°
2026-05-06 21:48 -10.08697 -43.62911 34024 ft 457 kts 287°
2026-05-06 21:48 -10.06344 -43.68819 34031 ft 458 kts 287°
2026-05-06 21:49 -10.03948 -43.74839 34032 ft 458 kts 287°
2026-05-06 21:49 -10.01526 -43.80909 34030 ft 458 kts 287°
2026-05-06 21:50 -9.99142 -43.86884 34020 ft 459 kts 287°
2026-05-06 21:50 -9.96734 -43.92921 34015 ft 459 kts 287°
2026-05-06 21:51 -9.94331 -43.98951 34010 ft 460 kts 287°
2026-05-06 21:51 -9.91929 -44.04978 34005 ft 460 kts 287°
2026-05-06 21:52 -9.89521 -44.11013 34002 ft 459 kts 287°
2026-05-06 21:52 -9.87124 -44.17017 34005 ft 460 kts 288°
2026-05-06 21:53 -9.84690 -44.23087 34010 ft 461 kts 287°
2026-05-06 21:53 -9.82308 -44.29026 34008 ft 461 kts 288°
2026-05-06 21:54 -9.79916 -44.34998 34009 ft 460 kts 287°
2026-05-06 21:54 -9.77542 -44.40926 34001 ft 461 kts 288°
2026-05-06 21:55 -9.75091 -44.47035 33995 ft 461 kts 287°
2026-05-06 21:55 -9.72661 -44.53101 33987 ft 461 kts 288°
2026-05-06 21:56 -9.70224 -44.59177 33979 ft 462 kts 288°
2026-05-06 21:56 -9.67809 -44.65184 33972 ft 461 kts 288°
2026-05-06 21:57 -9.65363 -44.71256 33974 ft 462 kts 288°
2026-05-06 21:57 -9.62915 -44.77334 33966 ft 462 kts 288°
2026-05-06 21:58 -9.60481 -44.83387 33975 ft 462 kts 288°
2026-05-06 21:58 -9.58084 -44.89343 33975 ft 462 kts 288°
2026-05-06 21:59 -9.55653 -44.95383 33982 ft 463 kts 288°
2026-05-06 21:59 -9.53219 -45.01416 33986 ft 463 kts 288°
2026-05-06 22:00 -9.50757 -45.07503 33988 ft 463 kts 288°
2026-05-06 22:00 -9.48302 -45.13569 33994 ft 463 kts 288°
2026-05-06 22:01 -9.45873 -45.19581 33994 ft 463 kts 288°
2026-05-06 22:01 -9.43413 -45.25664 33995 ft 464 kts 288°
2026-05-06 22:02 -9.40970 -45.31701 33995 ft 464 kts 288°
2026-05-06 22:02 -9.38519 -45.37759 33998 ft 463 kts 288°
2026-05-06 22:03 -9.36081 -45.43778 33999 ft 463 kts 288°
2026-05-06 22:03 -9.33620 -45.49852 34003 ft 464 kts 288°
2026-05-06 22:04 -9.31255 -45.55688 34005 ft 464 kts 289°